STARLINK-38085

Last updated on Sun Aug 09 2026 00:02:04 GMT+0000 (Coordinated Universal Time)

1 69996U 26159X 26220.52958677 .00098822 00000+0 65548-3 0 9992 2 69996 97.2837 60.5494 0001361 52.2891 307.8498 15.75200487 5703
UTC large
Height (km)
Speed (km/s)
/
Latitude / Longitude
Inclination (degrees)
Orbital Period (minutes)
Azimuth
Elevation
Range (km)
Doppler Factor

Next 0 passes for location: London (51.5072 / 0.1276)

No passes found over London.
STARLINK-38085